Latest Weather Observations for Coolangatta

IDN60801

Issued at 12:05 pm EST Sunday 31 August 2014 (issued every 30 minutes, with the page automatically refreshed every 10 minutes)

About weather observations | Map of weather stations | Latest weather observations for NSW | Other Formats
Station Details ID: 040717 Name: COOLANGATTA Lat: -28.17 Lon: 153.51 Height: 4.0 m
Data from the previous 72 hours. | See also: Recent months at Coolangatta
Date/Time
EST
Temp
°C
App
Temp
°C
Dew
Point
Rel
Hum
%
Delta-T
°C
Wind Press
QNH
hPa
Press
MSL
hPa
Rain
since 9 am
mm
Dir
 
Spd
km/h
Gust
km/h
Spd
kts
Gust
kts
31/12:00pm 23.2 21.6 11.6 48 6.5 SSW 11 17 6 9 1017.2 1017.2 0.0
31/11:30am 22.8 20.7 11.2 48 6.4 SSW 13 20 7 11 1017.7 - 0.0
31/11:00am 22.3 19.9 11.4 50 6.1 SSE 15 24 8 13 1018.2 1018.2 0.0
31/10:30am 22.3 20.0 11.7 51 5.9 SSW 15 20 8 11 1018.7 - 0.0
31/10:00am 21.3 18.0 10.8 51 5.7 SSW 19 30 10 16 1018.9 1018.9 0.0
31/09:30am 21.0 18.1 11.1 53 5.4 SW 17 26 9 14 1018.9 - 0.0
31/09:00am 20.1 16.5 10.5 54 5.2 SSW 20 32 11 17 1019.1 1019.1 0.0
31/08:30am 19.6 16.7 11.1 58 4.6 SSW 17 20 9 11 1019.2 - 0.0
31/08:00am 18.6 16.6 12.8 69 3.2 S 15 22 8 12 1019.2 1019.2 0.0
31/07:30am 14.1 13.7 12.3 89 1.0 WSW 6 7 3 4 1019.1 - 0.0
31/07:00am 12.5 10.9 11.7 95 0.4 WSW 11 11 6 6 1019.1 1019.1 0.0
31/06:30am 10.2 9.8 9.6 96 0.3 W 2 7 1 4 1018.9 - 0.0
31/06:00am 10.4 9.3 9.8 96 0.3 SW 6 9 3 5 1018.8 1018.8 0.0
31/05:30am 10.0 8.6 9.4 96 0.3 SW 7 9 4 5 1018.3 - 0.0
31/05:01am 9.4 9.1 8.8 96 0.3 SW 0 0 0 0 1018.2 - 0.0
31/05:00am 9.8 9.6 9.2 96 0.3 CALM 0 0 0 0 1018.2 1018.2 0.0
31/04:42am 10.1 10.0 9.5 96 0.3 CALM 0 0 0 0 1018.3 - 0.0
31/04:33am 10.4 10.4 9.8 96 0.3 CALM 0 0 0 0 1018.3 - 0.0
31/04:30am 10.4 10.4 9.8 96 0.3 CALM 0 0 0 0 1018.2 - 0.0
31/04:00am 11.0 11.2 10.4 96 0.3 CALM 0 0 0 0 1018.0 1018.0 0.0
31/03:30am 10.4 9.6 9.6 95 0.4 WSW 4 7 2 4 1017.9 - 0.0
31/03:27am 10.2 9.3 9.4 95 0.4 WSW 4 7 2 4 1017.8 - 0.0
31/03:00am 10.9 10.3 10.3 96 0.3 WSW 4 7 2 4 1017.8 1017.8 0.0
31/02:30am 10.6 8.9 9.8 95 0.4 W 9 11 5 6 1017.9 - 0.0
31/02:14am 11.1 9.9 10.3 95 0.4 WSW 7 9 4 5 1018.0 - 0.0
31/02:00am 10.5 10.1 9.6 94 0.5 SSW 2 7 1 4 1018.0 1018.0 0.0
31/01:30am 11.3 10.3 10.4 94 0.5 SSW 6 7 3 4 1018.1 - 0.0
31/01:26am 11.3 10.4 10.5 95 0.4 SSW 6 7 3 4 1018.2 - 0.0
31/01:00am 12.1 12.1 11.2 94 0.5 SW 2 6 1 3 1018.4 1018.4 0.0
31/12:30am 12.1 12.4 11.0 93 0.6 CALM 0 4 0 2 1018.6 - 0.0
31/12:20am 12.1 11.3 11.0 93 0.6 WSW 6 9 3 5 1018.7 - 0.0
31/12:01am 11.9 12.0 10.3 90 0.8 CALM 0 0 0 0 1018.7 - 0.0
31/12:00am 11.8 11.9 10.0 89 0.9 WSW 0 0 0 0 1018.7 1018.7 0.0
 
Date/Time
EST
Temp
°C
App
Temp
°C
Dew
Point
Rel
Hum
%
Delta-T
°C
Wind Press
QNH
hPa
Press
MSL
hPa
Rain
since 9 am
mm
Dir
 
Spd
km/h
Gust
km/h
Spd
kts
Gust
kts
30/11:30pm 12.9 12.2 11.5 91 0.7 SW 6 7 3 4 1018.7 - 0.0
30/11:00pm 13.6 12.1 12.0 90 0.9 WSW 11 13 6 7 1018.7 1018.7 0.0
30/10:30pm 13.9 12.4 11.9 88 1.1 SW 11 11 6 6 1018.6 - 0.0
30/10:00pm 14.2 12.9 12.6 90 0.9 W 11 11 6 6 1018.5 1018.5 0.0
30/09:30pm 13.6 12.2 12.2 91 0.8 WSW 11 11 6 6 1018.4 - 0.0
30/09:00pm 14.0 13.1 12.6 91 0.8 SW 9 11 5 6 1018.3 1018.3 0.0
30/08:30pm 13.9 13.3 11.6 86 1.2 SW 6 7 3 4 1018.4 - 0.0
30/08:00pm 13.9 13.5 11.1 83 1.5 SSW 4 7 2 4 1018.2 1018.2 0.0
30/07:30pm 14.6 13.9 11.4 81 1.7 WSW 6 7 3 4 1018.1 - 0.0
30/07:00pm 16.6 16.0 12.2 75 2.4 S 7 11 4 6 1018.0 1018.0 0.0
30/06:30pm 17.4 15.3 12.5 73 2.7 S 15 20 8 11 1017.7 - 0.0
30/06:00pm 17.4 15.7 12.5 73 2.7 S 13 19 7 10 1017.4 1017.4 0.0
30/05:30pm 18.3 16.7 12.7 70 3.1 SSE 13 20 7 11 1017.1 - 0.0
30/05:00pm 19.4 16.5 12.9 66 3.7 SSE 20 24 11 13 1017.0 1017.0 0.0
30/04:30pm 20.4 17.2 13.1 63 4.2 SE 22 28 12 15 1016.9 - 0.0
30/04:00pm 21.1 18.1 12.5 58 4.8 SE 20 26 11 14 1016.7 1016.7 0.0
30/03:30pm 22.5 18.9 10.0 45 6.8 SSW 19 28 10 15 1016.6 - 0.0
30/03:00pm 22.2 18.5 10.0 46 6.6 S 20 28 11 15 1016.5 1016.5 0.0
30/02:30pm 21.1 17.5 9.7 48 6.1 S 19 28 10 15 1016.8 - 0.0
30/02:00pm 21.8 18.2 10.6 49 6.1 S 20 30 11 16 1017.0 1017.0 0.0
30/01:30pm 21.4 16.8 9.6 47 6.3 S 24 32 13 17 1017.1 - 0.0
30/01:00pm 22.0 18.5 10.8 49 6.2 S 20 28 11 15 1017.4 1017.4 0.0
30/12:30pm 21.9 19.0 9.8 46 6.5 S 15 26 8 14 1017.8 - 0.0
30/12:00pm 21.1 18.1 9.4 47 6.2 S 15 20 8 11 1018.2 1018.2 0.0
30/11:30am 21.5 18.6 9.7 47 6.3 SSW 15 24 8 13 1018.5 - 0.0
30/11:00am 21.8 18.2 9.7 46 6.5 SSW 19 30 10 16 1019.0 1019.0 0.0
30/10:30am 20.9 17.4 8.9 46 6.3 S 17 24 9 13 1019.4 - 0.0
30/10:00am 20.5 16.9 8.5 46 6.3 SSW 17 26 9 14 1019.6 1019.6 0.0
30/09:30am 20.8 17.3 8.8 46 6.3 SSW 17 26 9 14 1019.8 - 0.0
30/09:00am 19.0 16.8 7.8 48 5.7 W 9 13 5 7 1019.8 1019.8 0.0
30/08:30am 17.2 15.3 8.9 58 4.3 N 9 9 5 5 1020.0 - 0.0
30/08:00am 14.3 13.8 9.3 72 2.5 SE 2 6 1 3 1020.1 1020.1 0.0
30/07:30am 13.1 11.7 8.8 75 2.2 WNW 6 7 3 4 1019.9 - 0.0
30/07:00am 10.7 9.5 8.1 84 1.3 W 4 9 2 5 1019.8 1019.8 0.0
30/06:30am 9.2 7.5 7.5 89 0.8 SW 6 9 3 5 1019.4 - 0.0
30/06:00am 8.7 6.8 6.8 88 0.9 WSW 6 11 3 6 1019.1 1019.1 0.0
30/05:30am 9.3 6.7 7.6 89 0.8 WSW 11 13 6 7 1018.9 - 0.0
30/05:00am 8.0 5.1 6.5 90 0.7 WSW 11 15 6 8 1018.6 1018.6 0.0
30/04:30am 8.6 5.5 7.2 91 0.7 WSW 13 15 7 8 1018.8 - 0.0
30/04:00am 8.3 5.2 7.4 94 0.4 WSW 13 13 7 7 1018.9 1018.9 0.0
30/03:30am 7.5 6.7 6.6 94 0.4 CALM 0 0 0 0 1019.0 - 0.0
30/03:00am 7.7 6.9 6.6 93 0.5 CALM 0 0 0 0 1019.1 1019.1 0.0
30/02:30am 8.0 7.3 6.8 92 0.6 CALM 0 0 0 0 1019.1 - 0.0
30/02:00am 8.6 6.9 7.5 93 0.5 SW 6 7 3 4 1019.1 1019.1 0.0
30/01:30am 8.7 6.9 7.3 91 0.7 WSW 6 7 3 4 1019.3 - 0.0
30/01:00am 9.1 8.5 7.5 90 0.8 CALM 0 0 0 0 1019.6 1019.6 0.0
30/12:30am 9.3 8.7 7.3 87 0.9 CALM 0 0 0 0 1019.7 - 0.0
30/12:00am 10.0 9.1 7.6 85 1.1 SW 2 6 1 3 1019.8 1019.8 0.0
 
Date/Time
EST
Temp
°C
App
Temp
°C
Dew
Point
Rel
Hum
%
Delta-T
°C
Wind Press
QNH
hPa
Press
MSL
hPa
Rain
since 9 am
mm
Dir
 
Spd
km/h
Gust
km/h
Spd
kts
Gust
kts
29/11:30pm 10.3 8.9 7.2 81 1.5 WSW 4 6 2 3 1019.9 - 0.0
29/11:00pm 12.0 10.3 8.5 79 1.7 WSW 7 9 4 5 1020.1 1020.1 0.0
29/10:30pm 12.2 9.9 9.0 81 1.6 SW 11 11 6 6 1020.2 - 0.0
29/10:00pm 13.1 11.2 9.0 76 2.1 SW 9 11 5 6 1020.5 1020.5 0.0
29/09:30pm 14.1 11.5 7.9 66 3.1 SSW 11 13 6 7 1020.7 - 0.0
29/09:00pm 14.7 11.8 8.2 65 3.2 SW 13 17 7 9 1020.8 1020.8 0.0
29/08:30pm 13.7 11.5 9.2 74 2.3 SW 11 13 6 7 1020.9 - 0.0
29/08:00pm 14.5 11.9 7.8 64 3.3 SSW 11 13 6 7 1020.9 1020.9 0.0
29/07:30pm 14.8 12.2 7.6 62 3.6 S 11 15 6 8 1020.8 - 0.0
29/07:00pm 15.2 12.2 7.7 61 3.7 S 13 17 7 9 1020.6 1020.6 0.0
29/06:30pm 15.0 11.9 7.3 60 3.8 S 13 17 7 9 1020.5 - 0.0
29/06:00pm 15.9 12.9 7.9 59 4.0 SSE 13 19 7 10 1020.2 1020.2 0.0
29/05:30pm 17.0 13.7 7.9 55 4.6 SSE 15 22 8 12 1020.0 - 0.0
29/05:00pm 18.0 13.3 7.7 51 5.2 SSE 22 30 12 16 1019.6 1019.6 0.0
29/04:30pm 18.4 12.3 8.1 51 5.3 SSE 30 39 16 21 1019.5 - 0.0
29/04:00pm 19.2 14.3 8.5 50 5.5 SSE 24 35 13 19 1019.2 1019.2 0.0
29/03:30pm 18.7 12.9 8.1 50 5.4 SSE 28 39 15 21 1019.1 - 0.0
29/03:00pm 19.7 13.9 8.1 47 6.0 SSE 28 39 15 21 1019.2 1019.2 0.0
29/02:30pm 20.1 13.9 7.8 45 6.3 SE 30 43 16 23 1019.4 - 0.0
29/02:00pm 21.3 16.9 7.2 40 7.2 SSE 20 28 11 15 1019.6 1019.6 0.0
29/01:30pm 21.2 17.0 5.5 36 7.8 SSW 17 26 9 14 1020.1 - 0.0
29/01:00pm 21.2 16.6 6.3 38 7.5 S 20 30 11 16 1020.3 1020.3 0.0
29/12:30pm 20.6 16.2 6.5 40 7.1 SSW 19 24 10 13 1020.8 - 0.0
29/12:00pm 20.3 15.8 7.0 42 6.7 S 20 26 11 14 1021.3 1021.3 0.0
29/11:30am 20.6 16.5 7.9 44 6.6 SSW 19 30 10 16 1021.6 - 0.0
29/11:00am 19.8 15.5 7.2 44 6.4 S 19 30 10 16 1022.1 1022.1 0.0
29/10:30am 19.7 14.8 7.1 44 6.4 S 22 32 12 17 1022.6 - 0.0
29/10:00am 18.8 12.7 6.6 45 6.1 SSW 28 41 15 22 1022.8 1022.8 0.0
29/09:30am 18.6 13.4 7.4 48 5.7 SSW 24 39 13 21 1022.8 - 0.0
29/09:00am 18.4 13.7 7.8 50 5.4 S 22 33 12 18 1022.8 1022.8 0.0
29/08:30am 17.4 12.5 6.9 50 5.2 SSW 22 41 12 22 1022.7 - 0.0
29/08:00am 16.9 12.5 7.3 53 4.8 SSW 20 32 11 17 1022.5 1022.5 0.0
29/07:30am 16.1 10.9 7.1 55 4.5 S 24 33 13 18 1022.4 - 0.0
29/07:00am 14.8 11.4 7.6 62 3.6 S 15 26 8 14 1022.2 1022.2 0.0
29/06:30am 14.1 10.6 7.4 64 3.3 SW 15 20 8 11 1021.9 - 0.0
29/06:00am 14.2 10.4 7.5 64 3.3 SW 17 28 9 15 1021.8 1021.8 0.0
29/05:30am 14.1 10.7 7.6 65 3.2 SSW 15 20 8 11 1021.5 - 0.0
29/05:00am 14.0 10.2 7.5 65 3.2 SSW 17 22 9 12 1021.3 1021.3 0.0
29/04:30am 14.4 10.6 7.5 63 3.4 SSW 17 24 9 13 1021.2 - 0.0
29/04:00am 14.6 11.3 7.9 64 3.3 SSW 15 26 8 14 1021.1 1021.1 0.0
29/03:30am 14.4 10.7 7.9 65 3.2 SSW 17 26 9 14 1021.1 - 0.0
29/03:00am 14.3 10.9 7.8 65 3.2 SSW 15 20 8 11 1021.2 1021.2 0.0
29/02:30am 14.6 10.9 7.9 64 3.3 SSW 17 22 9 12 1021.3 - 0.0
29/02:00am 14.6 10.9 8.1 65 3.2 SSW 17 24 9 13 1021.2 1021.2 0.0
29/01:30am 15.0 11.4 8.3 64 3.4 SSW 17 20 9 11 1021.2 - 0.0
29/01:00am 15.1 11.1 8.3 64 3.4 SSW 19 28 10 15 1021.4 1021.4 0.0
29/12:30am 15.0 11.1 8.5 65 3.3 SSW 19 30 10 16 1021.6 - 0.0
29/12:00am 15.4 11.3 8.6 64 3.4 S 20 30 11 16 1021.6 1021.6 0.0
 
Date/Time
EST
Temp
°C
App
Temp
°C
Dew
Point
Rel
Hum
%
Delta-T
°C
Wind Press
QNH
hPa
Press
MSL
hPa
Rain
since 9 am
mm
Dir
 
Spd
km/h
Gust
km/h
Spd
kts
Gust
kts
28/11:30pm 15.3 11.2 8.8 65 3.3 SSW 20 28 11 15 1021.5 - 0.0
28/11:00pm 15.5 11.5 9.2 66 3.2 SSW 20 32 11 17 1021.7 1021.7 0.0
28/10:30pm 15.7 11.8 9.4 66 3.3 SSW 20 30 11 16 1021.9 - 0.0
28/10:00pm 15.5 11.8 9.6 68 3.0 SSW 19 26 10 14 1021.9 1021.9 0.0
28/09:30pm 15.6 12.0 9.7 68 3.1 S 19 28 10 15 1021.8 - 0.0
28/09:00pm 15.7 11.8 9.6 67 3.2 SSW 20 32 11 17 1021.9 1021.9 0.0
28/08:30pm 15.7 11.5 9.8 68 3.1 SSW 22 33 12 18 1021.8 - 0.0
28/08:00pm 16.1 11.0 10.6 70 2.9 S 28 48 15 26 1022.1 1022.1 0.0
28/07:51pm 16.1 10.9 10.4 69 3.0 SSW 28 48 15 26 1022.0 - 0.0
28/07:30pm 16.3 12.6 9.5 64 3.5 SSW 19 26 10 14 1021.7 - 0.0
28/07:00pm 16.4 12.7 9.6 64 3.5 S 19 28 10 15 1021.3 1021.3 0.0
28/06:30pm 17.2 11.9 9.9 62 3.8 SSW 28 41 15 22 1021.0 - 0.0
28/06:00pm 17.3 12.7 9.5 60 4.1 S 24 37 13 20 1020.5 1020.5 0.0
28/05:30pm 17.8 12.7 9.2 57 4.5 S 26 35 14 19 1020.0 - 0.0
28/05:17pm 17.8 12.3 9.2 57 4.5 S 28 46 15 25 1019.8 - 0.0
28/05:00pm 18.4 12.4 8.7 53 5.0 S 30 43 16 23 1019.4 1019.4 0.0
28/04:30pm 19.4 14.4 8.1 48 5.8 S 24 37 13 20 1018.9 - 0.0
28/04:06pm 19.8 14.1 8.2 47 6.0 S 28 50 15 27 1018.6 - 0.0
28/04:00pm 19.8 14.5 9.7 52 5.4 S 28 39 15 21 1018.5 1018.5 0.0
28/03:30pm 19.2 12.7 10.5 57 4.7 S 35 54 19 29 1018.0 - 0.0
28/03:00pm 19.9 14.0 10.3 54 5.2 S 32 50 17 27 1017.6 1017.6 0.0
28/02:41pm 20.3 14.1 10.1 52 5.5 S 33 52 18 28 1017.4 - 0.0
28/02:30pm 20.5 13.6 10.3 52 5.5 S 37 52 20 28 1017.4 - 0.0
28/02:00pm 20.3 13.3 9.8 51 5.6 S 37 57 20 31 1017.2 1017.2 0.0
28/01:37pm 20.8 13.1 10.0 50 5.8 S 41 59 22 32 1017.0 - 0.0
28/01:30pm 21.1 13.7 9.7 48 6.1 S 39 56 21 30 1017.0 - 0.0
28/01:00pm 21.5 14.1 10.0 48 6.2 S 39 61 21 33 1017.1 1017.1 0.0
28/12:30pm 21.3 15.1 10.2 49 6.0 S 33 56 18 30 1017.1 - 0.0

Other Formats:

Comma delimited format used in spreadsheet applications
http://www.bom.gov.au/fwo/IDN60801/IDN60801.94592.axf

JavaScript Object Notation format (JSON) in row-major order
http://www.bom.gov.au/fwo/IDN60801/IDN60801.94592.json